Wind_Speed
20 20 19 18 17 17 16 15 14 13 12 11 11 12 12 12 13 13 13 13 14 15 15 15 15 16 16 17 18 19 19 20 21 21 22 23 23 23 24 25 25 26 27 27 27 27 28 29 29 29 28 28 29 28 28 27 26 24 22 19 20 17 14 16 15 20 30 27 26 33 34 32 40 44 41 41 40 35 33 34 34 35 37 37 36
20 19 17 16 15 14 13 12 11 10 9 9 8 9 9 10 11 12 13 14 15 16 17 17 17 18 18 19 19 19 20 20 21 21 22 23 23 23 24 25 26 27 27 28 28 28 28 29 30 30 29 29 29 28 29 29 26 26 23 18 18 18 15 16 18 19 26 28 25 30 30 24 32 42 38 37 42 40 37 38 37 36 37 38 38
19 17 15 14 13 12 11 10 8 7 6 5 5 6 7 8 10 12 14 15 16 17 18 18 18 19 19 20 20 20 20 21 21 21 22 22 23 24 24 25 25 26 27 27 28 28 28 28 29 29 29 29 30 28 27 27 25 24 25 21 19 21 18 17 20 21 25 29 27 27 28 22 25 36 36 34 40 42 40 42 41 37 36 35 36
18 16 14 13 12 10 9 8 6 4 3 2 3 4 6 8 10 12 14 16 17 17 18 18 19 19 20 20 21 21 21 22 22 22 22 22 23 24 24 24 25 25 26 26 26 26 26 27 28 28 27 27 27 25 23 23 22 22 24 23 20 22 22 19 20 22 24 28 29 27 28 26 25 30 32 32 36 40 40 41 42 39 36 34 33
18 16 14 13 11 9 8 7 5 3 2 0 2 4 6 8 10 13 15 16 17 18 18 19 19 20 20 21 21 21 21 21 22 22 22 22 23 23 24 25 25 25 25 25 25 25 25 26 26 26 25 25 24 22 20 21 21 21 22 23 21 22 23 21 21 22 23 27 31 29 28 27 25 26 27 27 30 34 36 36 36 36 35 35 33
18 16 14 12 11 10 8 7 5 4 3 2 3 4 6 8 11 13 15 16 17 18 18 19 20 20 20 20 21 21 21 21 21 22 22 22 23 23 24 25 25 26 26 26 25 25 25 25 25 24 22 22 23 23 22 22 22 22 22 22 22 22 23 23 22 22 24 26 29 30 29 27 26 26 25 23 25 29 31 31 29 28 30 34 35
19 17 15 13 12 11 9 8 7 6 5 5 5 5 7 9 11 13 15 16 17 18 19 20 20 20 20 20 20 20 21 21 21 21 22 22 23 24 25 25 26 26 26 26 26 25 25 25 25 24 22 21 22 23 22 21 21 21 21 20 21 21 22 23 22 22 24 25 26 28 28 27 26 25 24 23 24 26 27 28 29 27 25 25 28
21 18 17 15 14 12 11 10 9 8 8 7 7 7 8 10 12 13 15 16 18 19 20 20 20 21 21 21 20 21 20 20 21 22 22 23 23 24 25 25 26 27 26 25 25 25 26 25 24 23 21 20 20 20 20 21 22 23 22 20 21 22 22 23 23 22 23 24 26 26 26 26 25 24 23 21 22 24 23 23 27 30 27 24 25
22 20 19 18 16 14 13 12 11 11 10 9 9 9 9 11 13 14 15 17 18 19 20 20 21 21 21 21 21 21 21 21 21 21 21 22 22 23 25 25 25 26 26 26 25 24 24 23 22 20 18 18 19 21 21 22 23 24 24 22 21 22 23 23 23 22 22 24 25 25 24 25 23 22 22 20 20 23 24 24 26 30 31 30 30
23 23 21 19 18 16 15 14 13 13 12 11 11 10 11 12 13 14 16 17 19 20 20 21 21 21 21 21 21 21 21 20 20 20 19 19 20 21 22 22 21 22 24 25 24 21 19 18 19 19 19 21 23 24 24 23 23 24 24 23 23 23 23 23 23 23 23 24 25 24 24 24 23 22 23 23 22 24 25 24 25 29 30 28 30
25 24 23 21 19 18 17 16 15 15 14 13 12 11 12 13 13 15 16 18 19 20 20 21 21 21 21 21 22 21 20 20 19 19 17 16 17 18 19 18 18 19 19 20 19 18 17 16 16 17 21 24 25 23 22 22 23 23 23 23 23 23 23 24 23 22 23 24 25 25 24 25 26 24 23 24 23 23 24 23 23 26 26 22 23
26 25 24 22 21 20 19 19 18 17 16 14 13 12 12 13 14 16 17 19 19 20 20 21 21 21 21 21 21 21 20 19 19 18 18 16 15 16 17 16 17 18 17 16 17 17 17 17 16 16 18 20 21 21 22 22 22 23 23 23 22 21 21 22 23 23 23 24 26 26 24 25 26 24 22 21 22 23 25 25 24 25 26 23 23
27 26 24 23 22 22 21 20 19 18 16 15 13 13 13 13 14 17 18 19 20 20 20 21 20 21 21 21 22 22 21 20 19 18 18 17 15 15 16 16 18 19 16 15 16 16 16 17 17 16 17 18 19 20 22 24 23 22 22 21 20 20 20 22 23 24 25 25 27 28 25 25 26 25 23 23 25 27 27 26 25 25 27 28 28
26 25 24 23 23 23 23 22 20 19 17 15 14 13 13 13 15 17 19 19 20 20 20 21 21 21 21 22 23 23 21 20 20 19 18 18 16 15 16 17 20 22 18 15 15 15 15 15 17 19 19 19 20 21 22 23 23 22 22 22 23 23 23 24 25 26 27 28 29 30 27 26 27 28 26 24 25 27 27 27 27 26 28 32 34
25 24 23 23 24 24 24 22 20 18 16 14 14 13 13 14 16 18 19 19 20 20 21 21 21 21 22 22 24 23 21 20 20 19 18 18 16 15 17 19 20 20 17 15 15 15 15 15 16 19 21 21 21 22 24 24 24 26 27 28 30 29 28 28 29 31 31 29 29 30 30 28 29 28 26 24 26 28 28 29 30 28 30 33 34
23 24 24 24 25 25 24 22 20 17 15 14 14 13 14 15 17 18 19 19 20 20 21 21 22 22 22 23 24 24 22 20 19 19 19 17 16 16 17 17 17 17 16 16 16 15 15 16 17 18 21 23 24 24 26 27 27 30 32 32 34 35 34 35 34 32 30 30 30 32 32 31 31 31 29 28 30 31 30 30 28 26 28 29 28
24 24 25 25 25 25 23 21 18 16 15 14 14 14 15 16 17 19 19 20 20 20 22 22 22 23 23 23 24 25 23 20 19 19 18 17 16 17 16 17 17 18 18 17 17 17 18 21 21 20 21 23 25 26 28 29 31 32 33 34 34 35 35 37 37 34 32 33 35 35 35 35 35 35 33 31 31 32 31 30 26 25 26 23 20
25 25 26 26 25 24 22 19 17 15 15 15 14 15 15 16 17 18 19 20 21 21 22 23 22 23 23 22 23 24 23 20 18 19 18 16 16 16 17 19 22 21 20 19 19 22 26 27 27 25 24 24 27 29 30 31 32 32 33 34 34 34 35 38 41 40 36 35 36 36 37 37 36 35 33 32 30 30 31 32 28 27 28 24 20
26 26 26 25 24 22 20 18 16 15 15 15 14 15 16 16 17 18 18 20 21 22 22 23 23 23 22 22 21 21 22 20 18 18 18 16 15 16 17 20 22 22 21 24 27 30 30 29 27 27 28 28 30 32 32 32 32 33 34 33 32 33 37 40 41 41 38 36 37 38 38 38 38 38 36 34 31 30 32 33 31 29 30 29 27
25 25 24 23 23 21 19 17 16 15 15 15 15 15 15 16 17 18 19 20 21 22 22 23 24 24 22 22 21 20 21 21 19 18 18 16 15 17 18 19 22 24 27 30 32 30 28 28 29 28 28 30 32 33 33 32 33 35 36 33 32 34 39 40 38 37 37 36 36 36 36 36 35 33 31 29 27 28 30 32 32 32 31 32 31
24 24 24 23 22 21 18 17 16 16 15 15 15 15 15 17 18 18 19 20 21 22 22 23 24 24 23 22 21 19 19 20 20 19 18 16 16 17 17 19 23 27 29 29 28 27 27 29 30 29 28 30 32 33 34 35 37 38 37 36 36 37 38 37 35 33 31 29 28 27 26 27 27 26 25 25 24 24 27 29 31 33 32 33 33
24 24 24 23 22 20 18 17 16 16 15 15 15 16 16 17 18 18 19 20 21 22 22 22 24 25 24 22 21 19 18 18 19 20 19 17 16 17 18 20 21 24 27 27 27 29 29 29 30 30 29 31 33 35 37 39 38 36 34 35 36 37 38 35 31 28 24 21 20 21 21 22 25 25 26 28 27 26 27 29 30 32 33 34 34
24 25 25 23 22 20 19 18 16 15 16 16 16 17 16 17 17 18 18 19 20 21 22 22 23 25 25 23 21 20 19 18 19 20 19 17 17 18 18 20 21 22 25 28 29 30 30 30 31 32 31 33 35 36 37 37 35 32 32 35 36 37 36 31 26 24 23 22 23 24 24 25 28 29 29 30 31 30 30 31 32 33 34 34 35
25 26 25 24 22 20 19 17 16 16 16 17 18 17 17 17 17 17 18 19 20 21 21 21 22 23 25 24 22 21 20 20 20 20 18 17 18 18 19 21 22 22 24 27 28 30 31 32 33 33 33 34 35 34 33 33 32 32 33 35 34 33 31 29 26 26 26 25 25 26 26 27 30 30 30 32 34 35 35 35 35 36 36 35 36
27 27 26 24 22 20 19 18 17 17 18 18 18 17 17 17 17 17 17 18 19 20 21 20 21 21 23 23 22 20 18 19 20 20 18 18 18 19 20 21 22 23 25 26 27 29 30 32 33 33 32 32 31 30 29 28 29 30 30 30 29 27 27 27 26 25 24 24 24 25 26 28 29 29 31 34 37 36 35 36 37 37 36 36 38
28 27 26 24 23 21 20 19 18 19 19 19 18 17 17 17 17 17 17 18 19 20 20 20 20 20 20 19 19 19 19 20 21 20 19 19 21 21 22 23 23 23 24 25 26 28 29 29 29 29 29 28 27 26 25 24 24 25 25 25 25 24 23 23 23 23 23 24 24 25 26 27 28 30 31 32 33 32 32 36 37 35 34 35 37
29 28 27 25 24 23 22 20 20 19 19 19 18 18 17 18 18 18 18 18 19 19 19 19 18 18 18 17 18 20 21 20 20 19 19 21 22 23 24 24 23 23 23 24 25 26 27 27 27 28 27 26 23 22 20 20 20 20 20 21 21 22 22 22 22 22 23 23 24 26 26 27 28 29 29 29 29 30 33 37 36 32 29 29 30
30 29 27 26 25 24 22 21 20 19 19 19 19 18 18 18 19 19 17 17 18 19 19 19 18 16 16 17 19 22 21 19 17 17 19 21 22 22 23 23 22 22 23 24 24 25 26 27 27 27 25 22 20 19 18 18 18 18 19 20 20 21 22 22 22 22 22 22 24 25 25 26 27 27 28 29 30 33 36 37 35 32 29 26 23
30 29 27 26 25 24 22 21 21 20 19 20 19 19 18 18 19 19 18 17 18 18 18 19 18 17 17 18 20 20 20 18 16 16 18 19 19 20 21 21 20 21 21 21 22 25 25 25 25 24 22 20 19 19 19 19 20 21 21 21 21 21 22 22 22 22 22 23 24 24 25 27 27 27 27 27 29 32 34 31 29 29 27 23 21
30 29 28 27 26 24 22 22 21 20 19 19 19 18 18 17 18 19 19 18 17 17 18 19 19 19 21 21 19 18 18 18 17 16 17 18 18 18 19 18 18 19 19 19 21 23 22 22 23 22 19 17 17 17 18 20 21 23 24 25 25 24 23 22 21 22 23 24 24 26 27 27 27 26 26 27 28 30 30 27 24 24 23 21 21
30 30 29 28 25 23 22 21 20 19 19 18 18 18 18 17 17 18 18 18 17 15 16 18 19 19 21 22 20 18 17 16 16 16 16 16 16 17 16 16 17 17 16 17 19 21 21 21 22 22 20 19 18 18 19 20 21 22 24 27 29 27 24 22 23 24 24 25 25 26 26 26 26 26 27 28 29 28 28 26 23 21 21 22 22
30 29 28 26 24 22 21 20 19 19 18 17 17 17 17 17 17 16 16 16 17 16 16 16 17 16 16 17 16 16 14 14 14 15 15 15 15 14 14 15 16 15 14 15 18 19 19 19 21 22 22 22 21 22 22 22 23 24 23 24 27 28 26 25 26 26 25 25 26 26 25 26 27 27 28 29 30 29 27 25 22 20 21 22 23
28 26 24 23 22 21 21 20 19 18 17 16 15 15 16 17 17 16 15 15 15 15 14 12 12 12 12 12 13 13 13 13 13 14 13 13 12 12 13 16 17 14 13 15 18 19 20 20 21 21 21 22 22 24 24 24 24 25 25 24 26 28 30 29 28 27 26 25 25 25 25 26 26 27 28 29 29 29 27 25 23 23 22 21 22
26 24 22 21 21 20 20 20 19 17 16 15 15 15 15 15 16 16 17 16 15 14 12 10 10 12 13 14 13 12 12 12 12 12 12 11 10 11 15 17 16 12 12 15 17 19 20 21 22 22 22 23 23 23 24 25 25 26 27 27 28 30 30 30 29 29 27 25 24 24 25 26 26 26 27 28 28 28 27 25 24 23 22 21 21
24 22 21 20 20 20 20 19 18 17 16 16 16 16 15 15 15 15 15 15 16 16 15 13 12 13 13 13 11 10 10 11 12 11 9 8 9 12 16 16 15 14 15 16 16 17 19 20 21 23 23 23 23 23 24 25 26 26 27 28 30 31 31 30 29 28 25 24 24 25 25 26 26 26 26 27 27 26 26 26 25 24 23 22 22
23 22 21 21 20 20 19 18 17 17 17 16 16 16 15 15 15 15 14 15 16 18 19 16 14 14 14 12 9 8 9 10 10 9 7 8 10 13 13 14 15 16 17 18 18 18 18 19 20 22 23 23 24 24 24 25 26 27 27 28 29 30 30 29 27 25 24 25 26 26 26 26 26 27 26 26 26 25 25 26 26 25 24 22 22
22 21 21 21 20 19 18 17 16 17 17 16 16 16 15 15 14 14 15 15 17 20 21 19 17 16 14 11 9 9 9 9 8 7 8 9 11 11 11 12 14 15 17 18 19 20 21 21 21 22 23 23 24 25 25 25 26 27 28 28 28 27 27 26 25 25 26 26 25 25 26 26 26 26 26 25 25 25 25 26 25 25 26 25 24
20 19 19 19 18 18 17 17 17 17 17 17 16 15 15 15 15 15 16 17 18 20 21 20 20 18 15 12 10 10 11 10 9 9 10 10 10 10 10 11 12 14 15 17 18 20 22 23 22 22 23 23 24 25 25 26 26 27 28 28 28 27 25 25 27 28 28 27 25 25 26 25 25 26 25 25 25 25 25 26 26 25 25 25 23
19 18 18 17 17 17 17 17 17 17 17 17 17 16 16 16 16 17 18 18 19 20 20 21 21 20 17 13 11 10 11 12 12 14 14 12 10 9 10 10 11 13 15 16 17 19 21 22 23 23 23 23 23 24 25 26 26 27 27 28 28 26 26 27 29 30 30 29 29 30 28 27 27 27 25 24 24 25 25 26 26 25 24 23 23
18 18 18 17 17 17 17 17 17 18 18 17 17 16 16 17 17 18 18 18 19 20 20 21 22 19 16 13 11 10 12 14 16 17 18 15 12 10 9 10 11 13 14 16 17 18 20 21 22 23 23 24 24 25 25 25 26 26 27 27 26 25 25 26 28 29 30 31 32 33 31 29 28 27 25 24 24 24 25 25 25 25 23 23 23
17 17 17 17 17 17 17 18 18 18 17 17 16 16 17 17 17 18 18 19 20 20 21 21 21 19 16 13 11 11 14 18 19 19 18 15 13 12 10 10 11 12 14 15 17 18 19 20 21 22 23 24 25 25 25 26 26 26 27 27 25 24 25 26 26 28 30 32 33 34 33 31 28 26 25 25 25 25 25 24 24 24 23 22 22
16 17 17 17 17 18 18 19 19 18 17 17 17 17 18 18 18 18 19 19 20 20 21 21 21 18 15 13 11 12 15 18 19 18 16 14 14 14 12 11 12 12 13 15 16 17 19 21 21 22 23 23 24 25 25 26 26 26 26 26 24 23 25 26 27 28 30 32 34 36 36 32 29 26 25 25 25 24 24 24 23 23 22 21 21
16 16 16 17 17 18 19 19 18 18 18 18 18 18 18 18 18 19 19 20 20 20 21 21 20 18 16 14 12 13 15 16 16 16 15 14 14 14 14 13 13 13 13 14 15 16 19 20 21 22 22 22 23 23 24 24 24 24 25 25 24 23 24 26 28 30 32 33 36 38 36 32 29 26 25 25 24 23 23 23 22 22 21 20 19
15 16 16 17 17 18 18 18 18 18 18 18 18 18 18 18 19 19 20 21 21 21 21 21 20 19 17 15 14 15 15 15 14 15 15 14 14 14 14 15 15 15 15 15 15 16 17 19 21 22 22 22 22 22 22 23 23 22 22 23 23 23 23 24 28 32 34 34 36 38 36 34 31 28 25 24 24 24 23 23 22 22 21 20 19
15 15 16 16 16 17 17 17 17 18 17 17 18 18 18 19 19 19 20 21 21 21 21 20 19 19 18 17 16 15 15 15 14 14 14 14 15 15 15 15 16 17 17 17 17 17 18 19 20 22 23 23 23 22 22 23 23 22 21 20 20 21 22 24 28 33 34 33 34 37 36 34 33 29 25 24 24 23 22 22 23 22 22 21 20
11 12 13 14 15 16 17 17 17 17 17 17 18 19 19 19 20 20 20 21 21 21 21 20 19 18 18 17 16 16 16 15 15 15 15 15 15 15 15 16 17 17 18 18 18 19 19 19 20 21 22 23 24 24 23 23 23 23 22 21 20 20 21 23 27 32 33 32 33 35 34 32 31 30 27 25 25 24 23 22 22 22 21 20 18
11 12 13 14 15 16 17 17 17 18 18 18 18 19 19 20 20 20 20 20 20 20 20 19 18 18 18 17 16 16 16 16 16 16 16 16 16 16 16 17 18 18 19 20 20 20 20 20 20 21 22 23 23 24 24 24 23 23 23 22 21 20 20 22 26 29 31 31 33 34 32 30 29 29 27 25 26 25 23 22 22 21 20 19 17
13 14 15 16 17 17 17 18 18 19 19 19 19 19 19 19 20 20 19 19 19 19 19 18 18 17 17 17 16 16 16 16 17 17 17 17 17 17 17 18 19 20 20 21 21 20 21 21 21 21 22 22 23 23 24 24 23 23 23 23 22 21 20 21 24 27 29 30 32 32 30 28 27 26 25 24 24 23 22 21 21 20 19 17 16
9 11 12 14 15 16 17 18 18 19 19 19 19 19 19 19 19 19 19 19 19 18 18 17 17 17 16 16 16 16 17 17 18 18 19 19 19 18 19 19 20 20 21 22 22 21 21 21 21 21 21 22 22 22 23 23 23 23 23 23 22 22 21 20 21 23 26 29 30 30 29 27 26 25 23 22 21 21 20 19 19 18 17 16 16
8 10 11 12 14 15 16 17 18 18 19 19 19 19 19 19 19 19 19 19 18 18 17 17 17 16 16 16 17 17 18 18 19 19 20 20 20 20 20 20 20 21 21 22 22 22 21 21 21 21 21 21 22 22 22 22 22 23 23 22 22 21 20 19 19 21 24 27 28 28 27 26 25 24 23 21 20 20 19 18 17 17 16 16 15
10 10 11 12 13 14 15 16 18 18 19 19 19 19 19 19 19 18 18 18 18 17 17 16 16 16 17 17 18 18 19 19 20 20 20 20 20 20 20 20 21 21 22 22 22 22 22 22 22 21 21 21 22 21 21 22 22 22 22 22 21 20 19 18 17 19 22 25 26 25 24 23 23 22 22 21 20 19 19 18 16 16 15 15 14
Wind_Direction
141 136 131 127 121 115 109 104 99 95 90 82 71 63 53 45 39 33 26 19 13 8 4 360 356 354 351 349 348 347 346 346 346 346 346 345 345 344 342 340 338 337 336 335 335 334 331 329 328 328 328 326 324 323 321 321 320 316 311 306 299 294 285 276 273 281 287 287 286 290 294 297 297 298 299 300 301 301 299 296 294 294 293 293 292
146 141 135 131 126 121 118 114 109 102 92 78 64 55 45 37 32 24 17 11 7 3 359 356 354 352 352 351 350 349 348 348 348 347 347 345 344 343 342 340 338 336 335 334 333 332 330 327 325 325 325 322 319 318 317 316 316 312 308 302 295 290 283 278 277 280 286 289 289 290 292 293 293 295 298 298 298 299 298 296 294 293 292 292 292
151 147 143 140 137 134 129 124 117 108 93 76 58 46 34 27 22 14 9 4 360 357 354 352 351 350 350 349 348 348 348 348 348 348 347 345 343 342 341 339 337 335 333 331 330 329 327 324 322 321 320 317 314 314 312 311 310 307 303 300 295 291 287 279 276 278 283 288 289 289 290 289 286 290 294 295 296 297 296 295 295 294 292 291 290
158 156 155 153 149 145 143 139 137 130 109 77 44 31 21 15 10 4 0 356 353 351 350 348 348 347 347 346 346 346 346 346 347 347 346 344 342 340 339 337 334 332 330 328 326 325 322 319 317 317 315 312 310 309 308 306 304 300 298 296 293 291 289 283 277 277 281 285 286 285 287 287 283 285 289 292 294 295 295 295 296 296 295 293 290
168 167 167 164 161 162 166 168 167 166 156 37 359 3 3 1 358 354 351 348 346 345 344 343 343 343 344 343 343 343 343 345 345 345 344 343 341 338 336 334 332 329 327 325 323 320 317 315 313 314 313 310 307 306 304 303 300 295 292 292 290 288 287 284 279 277 277 280 284 286 286 285 284 284 285 288 293 295 294 293 294 296 296 296 293
177 176 176 177 179 183 186 187 191 202 223 266 304 330 343 347 346 343 341 340 339 339 339 339 339 339 340 340 340 341 342 343 344 343 342 341 339 336 334 332 329 327 325 323 321 319 317 315 313 313 311 307 305 306 304 302 299 294 290 290 290 287 285 283 281 279 276 277 282 286 286 287 287 287 284 284 288 290 292 294 295 294 293 294 295
185 185 187 190 193 196 197 203 211 222 239 262 286 308 327 334 334 334 334 335 335 335 335 336 336 337 337 337 338 338 340 342 343 342 341 340 338 336 333 331 327 325 324 322 322 320 317 316 314 313 311 307 305 306 305 302 299 295 293 292 291 289 286 285 284 282 280 281 282 284 286 288 288 288 289 288 285 282 286 293 297 296 293 291 293
193 193 196 199 201 203 207 215 222 231 245 262 280 298 313 321 324 326 328 330 331 332 332 332 333 333 333 334 335 336 339 343 344 343 342 341 339 335 331 328 326 324 323 321 320 320 318 316 315 312 310 307 303 301 300 300 299 297 295 293 292 290 288 287 286 285 283 283 282 283 286 289 290 292 295 293 286 283 285 289 292 294 295 293 292
200 201 203 205 207 210 215 222 228 237 250 262 275 291 304 311 316 321 325 327 328 329 329 329 329 330 331 332 333 336 340 343 344 344 344 341 336 332 329 327 326 322 320 319 318 318 318 315 313 310 304 299 297 295 295 295 294 293 293 294 294 294 292 290 289 288 287 285 284 285 287 287 290 296 297 295 293 294 295 291 287 289 292 294 292
206 207 209 210 213 216 221 228 234 242 252 262 272 285 298 305 313 319 322 325 326 326 326 327 327 328 329 331 332 335 340 343 344 343 343 338 332 328 325 321 319 317 315 316 316 315 314 310 308 305 300 298 300 299 296 294 290 288 290 292 294 293 293 292 291 290 289 287 286 288 288 288 290 294 295 296 298 298 296 293 290 290 292 292 291
211 213 215 215 217 221 226 231 237 243 250 259 269 281 293 302 311 317 321 323 323 324 324 325 326 326 328 330 331 334 338 341 342 341 341 338 332 324 316 311 309 308 308 308 308 309 307 305 303 303 302 303 305 302 297 294 292 291 291 291 291 291 291 292 292 291 289 287 286 286 286 288 290 292 293 296 298 298 300 304 305 301 299 296 294
216 218 219 219 221 225 228 231 236 242 248 256 268 280 291 301 311 315 318 319 319 322 323 323 324 325 326 328 328 331 338 342 342 342 340 338 333 319 308 304 303 303 302 300 302 303 303 302 301 299 299 300 300 299 296 295 294 294 293 292 291 289 288 289 292 294 293 291 290 289 289 291 294 294 296 299 301 302 303 305 305 303 301 298 294
219 220 220 222 224 225 228 231 234 239 246 255 267 280 290 300 310 313 315 316 318 320 321 320 322 323 324 327 327 331 339 343 343 343 339 336 332 318 305 301 299 299 297 295 298 299 300 301 300 298 297 296 296 296 295 296 296 294 293 293 291 289 288 288 289 289 289 289 289 288 289 290 291 291 293 296 299 299 298 296 296 295 293 291 289
219 221 221 223 225 226 227 229 232 238 245 256 268 279 289 300 308 310 311 314 316 318 319 318 320 323 325 327 327 331 340 344 343 341 337 334 331 316 301 298 299 300 299 295 295 297 297 298 298 297 298 297 295 294 294 294 294 292 290 289 288 287 285 283 282 282 282 282 282 282 282 282 283 286 289 291 291 288 285 283 283 282 280 281 282
218 220 222 223 224 224 225 226 230 237 245 257 268 278 290 300 305 307 309 312 314 316 317 317 319 322 325 327 326 330 339 344 340 336 334 334 327 311 300 301 303 303 300 294 292 294 295 296 295 295 296 294 292 291 291 291 290 289 287 285 285 284 281 281 282 280 278 276 272 273 274 274 276 280 283 284 283 281 279 279 281 282 282 282 282
218 220 221 222 223 222 223 225 229 237 248 259 270 281 292 300 303 305 308 310 313 315 315 316 319 321 324 327 326 328 337 342 338 333 333 330 322 309 304 304 303 299 295 293 294 292 291 294 294 292 291 291 290 289 289 289 289 287 285 284 284 283 281 284 285 279 274 273 272 273 274 274 276 280 282 284 285 286 287 287 289 291 289 287 286
219 220 221 222 221 221 221 224 231 241 252 263 273 284 293 298 300 303 307 309 312 314 314 315 318 320 323 327 325 326 334 339 336 331 330 328 321 311 303 301 301 299 295 294 293 290 292 297 297 292 286 285 287 289 290 290 289 287 286 285 285 284 283 286 286 280 275 274 275 277 278 278 281 284 286 286 287 288 289 287 287 288 285 283 285
220 220 221 220 218 219 221 226 236 246 256 267 276 285 292 296 299 303 307 309 311 312 312 314 316 319 322 324 325 326 330 335 334 328 327 328 321 309 302 303 305 303 298 295 295 297 300 301 298 294 288 284 287 291 292 292 291 290 288 286 284 282 282 285 285 283 279 276 276 277 278 279 280 281 283 283 282 282 280 279 279 279 277 276 279
222 221 220 217 216 219 224 231 241 251 260 269 276 283 290 294 298 303 306 308 309 309 311 312 314 316 319 320 323 326 327 331 332 327 327 331 322 309 304 304 304 302 300 302 304 303 302 302 301 297 292 291 292 294 295 295 292 288 285 283 279 278 282 285 285 284 281 278 278 277 277 278 278 278 278 276 274 271 269 269 270 270 269 271 274
222 219 216 215 217 222 228 235 245 253 261 268 274 282 290 294 298 302 304 305 306 307 309 310 310 313 316 318 324 328 327 328 330 328 330 333 320 308 304 302 303 305 305 306 306 304 302 302 303 299 295 294 295 296 295 294 291 288 285 282 279 281 286 285 283 283 282 280 279 279 278 279 278 276 274 271 266 262 262 263 263 263 263 266 268
219 215 214 216 220 225 231 238 246 253 260 267 274 282 288 293 296 299 300 302 303 304 306 308 308 310 313 318 324 329 329 329 329 331 335 331 315 307 306 303 304 306 306 305 304 302 300 300 300 299 298 296 295 294 293 295 295 293 290 288 286 289 291 290 288 288 287 285 286 285 284 283 280 275 273 271 266 264 263 264 264 263 262 264 266
216 215 215 218 222 227 233 239 245 252 260 267 275 281 285 288 292 295 298 300 301 302 304 306 306 308 312 318 323 328 331 330 330 335 338 327 311 308 306 303 304 305 303 302 301 300 300 299 299 299 298 296 294 293 295 299 300 298 296 296 297 298 300 300 299 298 295 293 293 291 287 285 282 280 279 278 276 274 272 271 269 267 264 264 265
216 216 218 220 224 228 234 240 246 253 261 268 273 276 280 284 288 291 294 296 298 299 302 304 306 308 312 317 322 327 331 334 337 341 338 322 310 311 308 304 305 305 302 300 300 301 302 301 300 299 298 298 300 300 302 304 305 303 301 302 302 303 305 307 307 304 300 298 295 291 288 288 287 287 286 285 284 283 281 278 274 271 269 267 266
216 217 219 221 225 230 235 241 248 254 259 265 268 271 276 280 282 286 289 292 294 296 299 303 306 308 311 316 321 328 334 338 341 340 331 315 310 313 310 308 309 307 304 303 303 303 304 303 303 304 304 305 306 306 305 305 304 303 302 302 304 307 309 310 309 305 302 298 294 291 290 290 289 289 288 289 291 291 287 283 279 274 270 268 268
216 218 220 222 226 232 237 241 247 252 256 261 264 268 272 274 277 282 284 287 291 293 296 300 302 305 310 314 319 328 336 337 335 331 324 318 317 317 314 313 312 310 308 306 306 306 307 307 308 309 310 310 310 309 308 305 303 303 304 305 309 311 310 308 306 303 299 295 292 291 291 290 289 289 290 292 293 292 287 283 281 276 272 271 270
218 218 220 224 228 232 237 241 244 249 253 258 261 264 268 271 274 278 281 284 287 289 292 295 298 302 306 310 316 325 332 332 329 327 326 326 326 325 321 317 315 314 313 312 311 312 312 313 314 314 313 314 313 311 309 308 308 309 309 310 312 312 310 307 305 301 297 294 293 293 292 292 292 293 294 293 291 288 285 284 281 276 273 272 271
218 218 220 224 228 232 236 239 242 246 251 255 258 261 265 268 271 274 278 283 285 285 288 290 293 298 302 307 313 318 322 325 323 322 324 326 327 325 322 320 320 321 321 320 319 319 317 316 315 315 316 317 317 315 314 315 316 317 317 316 315 313 311 310 306 302 299 296 296 294 293 294 296 296 296 293 289 287 288 285 280 275 271 270 268
219 220 222 224 228 233 235 237 241 244 249 253 256 259 262 266 270 274 278 282 282 283 285 286 289 294 299 305 310 311 312 315 314 312 318 323 322 320 320 323 325 326 326 326 323 320 318 317 319 323 327 329 329 327 326 326 326 324 323 321 318 315 314 313 310 306 303 300 299 297 296 297 298 296 295 291 287 288 290 287 280 275 274 270 265
218 220 222 224 228 232 234 237 240 243 246 251 255 258 262 265 270 274 276 277 279 284 286 287 292 298 300 301 302 300 299 304 307 307 311 316 316 316 319 324 326 326 329 328 323 321 325 329 335 339 339 335 332 331 329 329 328 326 325 324 321 319 318 316 313 311 310 307 305 303 302 301 298 296 294 289 285 287 291 287 279 276 274 267 258
215 218 221 224 227 230 233 238 241 243 246 251 254 258 262 265 270 275 278 279 282 286 285 284 289 294 295 294 293 287 288 297 305 307 310 313 314 315 318 321 324 328 331 326 322 329 340 343 341 340 336 331 330 329 327 328 326 324 325 325 324 323 321 319 317 315 314 311 308 305 303 300 298 297 296 293 291 292 293 289 281 275 271 263 259
215 218 221 224 227 230 235 239 242 245 248 252 257 262 265 266 268 274 280 282 281 277 272 270 273 277 279 282 283 281 285 295 302 305 309 312 313 315 319 323 326 331 333 326 326 338 348 343 336 335 333 329 327 324 322 323 322 320 321 322 323 324 321 318 318 317 314 312 308 305 303 302 300 299 300 300 299 297 295 292 286 275 267 264 262
218 220 223 226 229 232 235 239 241 245 249 253 259 266 272 275 274 274 277 280 280 278 273 269 270 273 274 275 277 281 288 295 300 304 308 310 312 317 320 320 321 326 328 327 334 345 347 339 332 331 329 326 325 324 323 322 320 319 317 315 317 320 319 318 318 316 313 311 309 307 306 305 303 303 305 305 303 299 295 291 286 278 272 268 265
221 224 226 228 231 232 234 237 241 244 249 254 260 265 273 280 284 284 283 280 281 285 284 274 265 265 265 262 268 282 293 297 299 304 307 309 316 321 315 311 315 322 328 334 342 347 345 337 330 326 324 322 322 322 323 322 320 319 317 313 313 316 319 320 319 316 312 310 309 308 307 307 307 308 308 307 305 301 297 291 286 282 278 272 269
223 227 230 232 234 234 235 237 241 244 248 252 256 262 268 274 282 288 289 288 287 289 285 270 256 253 254 255 262 278 293 299 302 305 307 314 323 318 307 307 314 327 338 345 349 346 340 335 328 323 322 322 321 322 322 322 321 320 318 317 317 318 320 321 321 318 316 313 312 312 311 310 310 310 308 307 305 303 301 297 292 287 281 276 274
224 228 231 234 236 236 236 238 240 243 246 247 250 256 262 267 272 278 283 286 287 285 283 278 274 274 275 273 270 277 290 299 303 304 309 323 323 310 306 311 323 336 345 349 348 342 336 329 322 320 321 322 322 323 323 323 323 322 320 320 320 320 321 321 321 320 320 318 317 316 314 312 311 309 307 305 303 303 303 302 300 294 285 277 275
224 228 231 234 236 237 238 239 241 244 246 248 249 252 256 261 266 271 274 276 278 280 283 285 284 285 287 286 276 269 277 293 303 303 304 314 315 311 316 327 335 340 344 346 345 339 332 325 320 320 321 322 324 326 325 324 325 324 323 322 321 321 321 321 321 322 321 320 319 318 316 313 310 308 307 304 302 301 303 303 303 301 296 289 286
228 231 234 236 238 239 240 242 244 246 247 249 250 252 255 259 263 267 269 271 273 278 283 287 288 285 283 282 281 276 274 283 294 288 284 297 309 316 326 335 338 338 340 343 343 337 330 327 325 325 325 327 329 329 328 327 326 327 327 326 324 322 321 321 322 322 320 317 317 317 316 314 310 308 307 306 303 302 302 302 303 304 302 300 297
234 237 239 240 241 242 243 243 245 246 248 249 250 253 256 259 262 263 265 268 272 275 278 283 285 284 282 283 289 289 287 291 294 288 289 300 313 319 324 332 335 335 336 340 340 334 330 330 331 330 329 331 332 332 330 330 329 329 329 329 327 325 324 324 325 325 324 321 319 318 317 315 313 311 309 306 304 303 303 304 305 304 303 303 301
238 240 241 242 243 245 246 246 246 246 248 249 251 253 254 256 259 261 264 266 269 272 274 277 279 281 285 288 289 289 296 303 303 299 302 308 313 314 317 324 329 331 333 336 337 333 330 331 332 332 332 333 334 334 334 333 332 332 331 330 327 326 326 327 327 327 326 325 324 323 321 317 315 313 311 307 304 304 305 306 305 303 301 301 302
242 242 242 243 243 245 247 248 248 248 248 250 251 252 253 255 258 261 264 266 267 269 272 275 277 282 288 290 286 287 297 301 297 294 298 303 306 310 315 321 325 328 332 334 334 333 330 329 331 332 335 337 338 338 338 337 336 335 333 330 326 323 324 326 326 326 326 326 326 326 323 320 317 315 312 309 308 308 307 306 305 303 302 302 303
246 246 245 245 244 245 246 247 249 251 253 254 255 255 256 259 261 263 264 265 266 269 272 274 278 283 287 286 282 283 286 286 284 286 290 296 302 309 314 319 323 327 330 332 333 332 330 330 332 334 337 341 342 341 340 340 338 336 334 330 325 322 324 326 326 327 327 328 328 328 326 322 319 316 314 313 313 311 309 307 306 306 306 306 307
247 247 248 248 247 246 246 248 251 254 255 256 257 259 260 262 264 264 265 265 267 270 272 275 280 284 285 282 278 274 272 272 274 280 286 292 298 305 313 319 322 325 329 331 332 331 329 330 333 335 338 341 342 341 340 340 339 337 335 330 324 321 324 327 327 328 328 328 329 330 329 325 321 318 317 316 315 314 312 311 310 311 311 312 314
250 251 252 252 252 251 252 254 256 257 257 258 260 262 264 265 266 266 266 267 268 269 271 276 280 283 282 279 274 268 266 268 272 279 285 290 295 301 308 314 317 320 324 326 328 328 327 328 330 332 334 337 339 339 338 338 337 336 333 329 322 320 323 327 328 328 328 328 329 331 329 327 324 322 319 319 319 318 317 315 315 315 316 317 319
252 253 254 254 254 254 256 258 260 261 262 264 265 265 266 267 267 267 266 267 268 270 272 275 280 282 281 278 275 271 270 272 276 280 284 289 294 299 304 308 312 314 317 320 322 323 323 324 325 326 328 331 334 335 336 337 336 334 332 328 322 318 321 325 328 329 329 328 329 331 330 329 328 325 321 321 324 324 322 321 322 323 323 325 327
252 253 255 255 256 258 261 264 267 268 267 267 268 269 269 269 268 267 267 268 270 272 274 277 279 280 279 277 275 274 275 276 279 281 285 289 294 298 301 304 307 309 312 315 317 318 319 320 321 321 323 326 329 330 332 335 336 335 333 329 323 317 317 322 328 332 332 329 329 331 331 331 332 331 326 325 328 328 326 328 330 332 333 334 336
252 253 255 258 261 266 269 272 273 273 271 270 271 272 272 271 269 269 269 270 272 274 276 277 278 277 276 276 275 275 277 279 281 283 287 289 292 297 300 301 304 305 307 310 312 314 316 316 317 317 319 321 323 325 327 331 333 334 333 332 328 321 318 323 333 338 335 331 331 333 333 332 334 335 334 333 335 335 335 337 340 343 345 346 348
255 257 262 268 272 274 275 276 276 275 274 273 273 272 272 272 272 271 271 272 273 274 274 275 276 275 275 276 276 276 278 280 281 284 288 290 292 296 298 299 301 302 303 306 308 310 312 313 314 315 316 316 318 321 323 325 329 331 331 331 331 328 327 332 340 341 337 332 332 335 336 335 336 338 340 341 342 341 341 344 349 354 357 358 1
266 268 272 274 275 275 275 276 275 275 274 275 275 274 273 273 273 273 273 273 274 274 274 274 275 275 276 277 278 278 280 281 283 285 288 290 293 296 297 298 300 301 302 303 305 307 309 310 311 312 313 314 315 317 319 321 324 326 328 329 329 328 331 338 343 341 337 333 334 337 340 340 340 341 343 345 346 346 347 349 354 360 5 8 11
284 282 280 278 276 276 276 277 277 277 278 279 278 277 277 276 275 275 276 276 276 276 276 275 276 277 278 278 279 280 281 283 285 287 289 291 294 296 298 299 300 301 302 303 305 306 308 309 310 311 312 313 314 315 317 318 320 322 325 327 325 326 332 339 342 340 337 334 334 338 341 343 343 345 346 349 350 351 352 355 358 2 7 11 13
295 291 288 283 280 279 280 280 280 281 281 280 279 279 279 279 278 278 279 279 279 279 279 279 280 281 281 281 282 282 283 285 287 288 290 292 295 297 299 299 300 302 303 303 305 307 308 310 311 312 312 313 314 314 315 316 318 320 322 323 324 327 332 336 340 342 339 334 334 338 341 343 346 348 350 352 355 356 356 359 2 4 8 11 13
292 291 290 286 285 285 284 282 282 283 283 281 280 280 279 280 281 282 282 282 282 283 283 284 285 284 283 283 284 284 285 287 288 289 290 293 295 297 299 300 301 303 304 304 306 308 310 311 312 313 314 314 315 314 314 315 317 318 320 323 325 326 327 329 337 344 339 332 332 338 341 343 348 352 354 356 359 0 1 3 4 6 10 14 15
Height
869 869 870 870 871 871 872 873 873 874 875 876 877 877 878 878 878 879 879 879 879 878 878 877 876 876 875 874 873 872 871 870 869 867 867 866 865 864 863 862 861 860 859 858 858 857 855 854 852 852 851 849 848 847 845 844 843 843 842 842 841 841 840 839 835 825 817 818 816 811 811 811 806 803 803 800 798 798 797 795 795 793 792 791 790
868 869 869 870 870 871 871 872 873 874 875 876 877 877 877 878 878 878 877 877 877 876 875 875 874 873 872 871 870 869 868 867 866 865 864 863 862 861 860 859 858 857 856 855 854 854 852 851 849 849 848 846 845 844 843 842 841 840 839 839 837 837 837 836 833 826 816 813 813 809 807 809 804 800 801 799 794 793 792 789 789 789 787 787 785
867 868 869 869 870 870 871 872 873 874 875 875 876 876 876 877 876 876 876 875 875 874 873 873 872 871 870 869 868 867 866 865 864 863 862 861 860 859 858 857 856 855 854 853 852 851 850 848 847 846 845 844 842 842 841 840 839 838 836 836 835 833 833 833 830 825 818 811 809 807 804 804 802 798 797 796 792 789 787 784 783 783 782 782 781
866 867 868 868 869 869 870 871 872 873 874 874 875 875 875 875 875 874 874 874 873 873 872 871 870 869 868 867 866 865 864 863 862 861 860 859 858 857 856 855 854 853 852 851 850 849 848 846 845 844 843 841 840 839 839 837 837 836 833 832 832 830 828 828 826 824 818 810 805 804 802 799 798 795 793 792 789 785 783 780 778 778 777 777 777
865 866 867 867 867 868 869 870 871 872 873 873 873 874 874 873 873 873 873 872 872 871 870 869 868 867 866 865 864 863 862 861 860 859 858 857 856 855 854 853 852 851 850 849 848 847 846 844 843 842 841 839 838 837 836 835 834 833 831 829 829 827 824 824 822 820 817 810 803 801 799 796 794 792 790 788 785 782 779 776 775 774 773 772 772
864 864 865 865 866 867 868 869 870 870 871 872 872 872 872 872 872 872 871 871 870 869 869 868 867 866 864 863 863 862 861 860 859 858 856 855 854 853 852 850 849 848 847 846 845 844 843 842 841 840 839 837 836 834 833 832 831 829 828 826 825 823 821 819 818 816 813 809 803 798 795 793 790 789 787 787 784 779 775 772 771 771 769 767 766
862 862 863 864 865 866 867 867 868 869 870 870 871 871 871 871 870 870 870 869 869 868 867 866 865 864 863 862 861 860 859 858 857 856 854 853 852 850 849 848 846 845 844 843 842 841 840 839 838 837 837 835 834 832 831 829 828 826 825 823 821 820 818 815 814 812 809 805 801 797 793 790 788 785 784 785 783 778 775 772 768 766 765 764 762
860 861 861 862 863 864 865 866 867 868 869 869 870 869 869 869 869 869 868 868 867 866 865 864 863 862 861 860 859 858 857 856 855 854 852 850 849 848 846 845 844 842 842 841 840 839 837 836 836 834 834 833 832 830 829 827 826 823 822 821 819 817 815 812 810 808 806 802 798 794 791 788 786 784 783 782 780 776 775 774 768 763 762 761 759
858 859 860 860 861 862 863 864 865 866 867 867 868 868 868 868 868 867 867 866 865 864 863 862 860 859 858 857 857 856 855 854 853 851 850 849 847 846 844 843 842 840 839 838 837 836 835 834 833 832 831 830 829 828 827 826 824 821 819 818 817 814 812 810 808 806 803 800 795 792 789 786 784 783 781 780 779 776 774 773 769 763 760 758 755
856 857 858 858 859 860 861 862 863 864 865 866 866 866 866 866 866 865 864 863 863 861 860 859 858 857 856 855 854 853 853 852 851 850 849 848 846 845 843 841 840 839 837 835 834 833 833 831 830 829 828 826 825 824 822 822 821 819 817 816 814 812 810 808 806 804 802 797 793 791 788 784 783 783 781 779 779 776 772 771 767 763 760 756 751
854 855 855 856 857 858 859 860 862 863 863 864 865 865 865 864 864 863 862 861 860 859 858 857 856 855 854 853 852 851 851 850 849 848 847 846 845 843 842 840 839 837 836 834 833 831 830 829 827 826 824 823 821 820 818 817 816 815 814 813 812 811 809 806 804 802 800 796 791 789 787 783 781 782 780 778 777 775 771 769 767 763 760 756 749
852 852 853 854 855 856 857 858 860 861 861 862 863 863 863 862 861 860 859 858 857 856 855 854 853 852 851 850 849 849 849 848 847 845 844 844 843 842 840 838 837 835 834 832 831 829 828 826 825 823 822 820 818 817 815 813 812 811 810 809 808 807 806 805 802 800 798 794 790 787 786 783 780 779 780 778 776 774 771 769 768 765 761 757 752
849 850 851 852 853 854 855 856 858 859 860 860 861 860 860 859 858 857 856 856 855 854 853 851 851 850 849 848 847 846 846 845 844 843 842 841 841 840 838 836 835 833 832 830 829 827 826 824 822 820 819 818 816 814 812 810 809 808 806 805 804 804 803 802 800 798 796 793 788 785 785 783 779 777 779 778 775 772 770 768 768 766 761 757 753
846 847 848 849 850 852 853 854 856 856 858 858 858 858 857 856 856 854 854 853 852 851 850 849 848 847 846 845 844 843 844 842 841 840 839 838 838 837 836 834 832 830 829 828 826 825 824 822 820 818 817 816 814 812 810 808 806 804 803 802 801 800 799 797 796 794 792 790 787 783 782 781 777 775 776 776 774 770 767 765 764 763 758 753 749
843 844 846 847 848 849 850 852 853 854 855 856 855 855 854 853 853 852 851 850 849 848 847 846 845 844 844 843 841 841 841 840 839 838 837 836 835 835 833 831 829 827 826 825 824 823 822 821 819 817 815 813 811 809 807 805 803 801 799 797 796 794 793 792 790 788 786 785 782 779 777 776 774 772 772 772 770 766 763 761 760 758 754 748 744
840 841 843 844 845 847 848 849 851 852 853 853 852 852 851 850 850 849 848 847 846 846 844 843 842 841 841 840 839 838 838 838 837 835 834 833 833 831 830 828 826 825 823 822 821 820 820 819 817 814 812 810 808 806 805 803 800 797 795 792 790 788 787 785 784 783 781 779 777 775 773 771 770 768 768 768 766 763 760 758 757 756 751 744 739
837 838 840 841 842 844 846 847 848 849 850 849 849 848 848 848 847 846 845 844 843 843 841 840 840 839 838 838 836 835 835 835 834 833 832 831 830 829 827 825 824 822 821 820 819 818 817 815 814 811 808 806 804 803 802 799 797 794 790 787 785 783 781 779 778 777 776 774 772 770 769 767 765 764 764 765 763 761 758 755 754 753 748 741 737
834 836 837 838 840 842 843 845 846 846 846 846 846 845 845 845 844 843 842 841 840 840 839 837 837 836 836 835 834 833 832 832 832 830 829 828 827 826 824 822 821 819 818 817 816 814 813 811 810 808 805 802 800 799 798 796 793 790 787 783 780 778 776 773 771 770 769 767 766 764 763 761 760 759 760 760 760 759 756 751 750 749 744 738 735
831 833 834 836 838 840 841 842 843 843 843 843 843 843 842 842 841 840 839 838 837 837 836 835 834 833 833 833 833 831 829 829 829 828 826 826 825 824 822 820 818 816 815 813 812 810 809 807 807 805 802 799 797 795 794 792 788 785 782 779 775 772 770 768 766 764 762 760 759 757 756 755 754 753 753 754 754 754 751 747 746 744 739 735 734
829 831 832 834 836 837 838 839 839 840 840 840 840 840 839 839 838 837 837 836 835 834 833 832 831 830 830 830 830 829 827 826 826 825 823 823 823 822 820 818 815 813 811 810 807 806 805 803 802 802 799 797 794 791 789 787 784 780 778 774 770 767 765 763 760 758 756 754 752 751 749 749 748 747 746 746 746 746 744 743 741 739 736 731 731
827 829 830 832 833 834 835 836 836 836 837 837 837 837 836 836 835 834 834 833 832 831 830 829 828 827 827 827 826 826 825 823 823 822 820 820 820 820 818 816 814 811 808 807 805 803 802 800 798 797 796 793 790 787 784 781 778 776 773 770 766 763 760 758 756 754 752 749 748 747 746 744 743 742 741 740 740 739 739 738 736 734 732 728 726
824 826 827 829 830 831 832 832 833 833 833 833 833 833 833 833 832 831 831 830 829 828 827 826 825 823 823 823 823 823 822 821 820 818 817 817 817 817 816 815 813 810 807 805 803 801 799 797 794 793 791 788 785 782 778 775 774 771 768 765 762 759 757 754 752 750 748 746 745 743 741 740 738 737 736 735 734 734 734 732 730 728 727 725 722
821 823 824 826 827 827 828 829 829 830 830 830 830 830 830 829 829 828 828 827 826 825 824 823 822 820 819 819 819 819 819 818 817 815 815 815 815 815 814 812 811 809 806 802 800 797 795 793 791 788 786 783 780 777 774 771 769 766 764 761 758 756 753 750 748 746 744 743 741 739 737 735 733 732 731 729 728 729 728 726 724 722 720 719 717
818 820 821 822 823 824 825 826 826 826 827 826 826 827 826 826 826 825 825 824 823 822 821 820 819 817 815 815 815 815 815 815 814 813 813 813 812 812 811 809 808 806 804 800 797 795 792 789 787 784 782 779 777 774 771 768 766 763 760 758 755 753 750 747 745 743 741 739 737 735 733 731 729 727 725 724 722 722 721 719 717 715 713 711 710
814 816 818 819 820 821 821 822 822 823 823 823 823 823 823 823 823 822 822 821 820 819 818 817 816 814 813 812 811 812 812 812 812 811 811 810 809 808 807 806 805 803 801 798 795 792 789 787 784 781 779 776 773 770 768 765 763 760 757 755 753 750 748 745 743 741 739 736 733 731 729 727 725 723 720 719 717 715 714 712 709 708 707 705 702
810 812 814 815 816 817 818 819 819 819 819 819 819 820 820 819 819 819 819 818 817 816 815 814 813 812 811 810 809 809 810 810 810 809 808 807 806 805 804 802 801 799 797 795 792 789 786 784 781 778 776 774 771 768 765 762 760 757 755 753 750 748 746 744 741 739 736 733 731 728 726 723 721 719 716 714 712 710 708 706 702 701 701 699 696
806 808 809 811 812 813 814 815 815 815 816 816 816 816 816 816 816 815 815 815 814 814 813 812 811 810 809 808 808 808 808 808 807 807 806 804 803 802 800 799 797 796 794 791 789 786 783 781 778 776 773 770 768 765 762 759 757 755 753 750 748 746 744 742 740 737 734 731 728 725 722 720 717 715 713 710 707 704 702 700 697 694 694 693 690
802 803 805 807 808 808 810 811 811 812 813 813 813 813 813 813 812 812 813 812 811 811 810 809 809 808 807 807 806 806 806 806 805 805 803 802 801 800 798 796 795 793 791 789 786 784 781 778 775 772 769 766 764 762 759 757 755 753 751 749 746 744 742 740 737 735 732 729 726 722 719 717 714 711 709 705 702 698 696 695 692 689 688 688 685
797 799 801 802 803 804 805 807 808 809 810 810 810 811 811 811 810 809 810 810 809 808 808 807 806 806 806 806 805 804 803 803 803 803 802 801 800 798 796 795 793 792 790 787 784 781 778 776 773 770 768 765 763 761 758 756 754 751 749 747 744 742 740 737 734 732 729 727 724 720 717 714 710 707 704 701 696 693 691 689 687 685 683 682 680
793 795 796 798 799 800 802 803 804 806 806 807 808 808 808 809 808 807 807 807 807 806 805 805 805 805 804 804 803 803 802 801 801 801 800 799 798 796 795 793 792 790 788 785 782 779 777 774 772 770 768 766 763 761 758 756 753 749 746 744 742 740 738 735 732 730 727 724 721 718 715 711 707 704 701 696 692 689 686 684 682 680 678 677 674
789 790 791 793 795 797 799 800 801 802 803 804 805 805 806 807 806 806 805 804 804 805 804 804 804 804 804 802 802 801 800 799 799 798 797 796 795 794 793 791 790 788 786 783 781 778 775 773 771 769 768 765 763 761 758 756 753 750 746 743 740 738 736 733 731 728 725 722 719 716 713 709 705 701 698 693 689 684 681 678 677 675 673 671 668
785 786 788 791 792 794 796 797 798 799 800 801 802 802 803 804 804 804 804 802 802 802 802 802 802 802 802 802 800 799 798 798 797 796 795 794 793 792 790 789 787 786 784 781 779 776 774 772 771 768 766 764 762 759 757 755 752 750 747 743 740 737 735 732 730 727 724 720 717 714 710 707 703 699 695 691 686 682 677 674 672 670 668 665 662
783 784 787 789 790 791 793 793 795 796 796 798 799 799 800 801 801 801 801 801 800 799 799 799 800 799 799 799 798 797 797 796 795 794 793 792 791 789 788 786 784 783 781 779 777 774 772 771 770 768 766 763 761 758 756 753 751 748 746 743 740 736 733 731 728 725 722 719 715 712 708 705 701 697 693 690 685 680 675 670 667 665 663 660 657
781 783 785 786 787 788 789 790 791 792 793 794 795 796 797 798 798 798 798 798 798 797 797 797 798 797 796 796 795 795 795 794 793 792 791 790 788 787 785 783 782 781 779 777 775 773 771 770 768 766 764 762 759 757 754 751 749 747 744 741 738 734 731 729 726 723 719 716 713 710 706 703 700 696 692 688 683 678 673 668 664 661 658 655 652
779 780 782 783 784 785 786 787 788 789 790 790 791 792 793 793 794 795 795 795 796 795 795 795 795 794 794 793 792 792 792 792 791 790 789 788 786 784 782 780 779 778 776 775 773 772 770 769 766 764 762 759 757 755 752 749 747 744 741 738 735 732 729 726 723 720 717 714 711 708 704 701 698 694 690 686 681 677 671 666 662 658 654 650 647
776 777 779 780 781 782 784 785 785 786 787 787 787 788 788 789 790 790 791 793 793 793 793 792 792 792 791 790 790 790 790 789 789 788 787 785 783 781 780 778 776 774 773 772 771 769 768 767 765 763 760 757 755 752 750 747 745 742 739 737 733 730 727 724 721 718 716 713 709 706 702 699 695 692 688 683 679 675 670 665 660 656 651 647 643
774 775 776 778 779 780 782 783 783 784 784 785 785 785 785 785 786 786 788 789 790 790 790 790 789 789 788 788 788 787 787 786 786 786 785 783 781 779 778 776 774 772 771 769 768 766 765 764 763 760 758 755 752 750 747 745 742 740 737 734 732 729 726 723 720 717 714 710 707 703 700 697 693 690 686 681 676 672 668 663 659 654 649 645 641
772 773 775 776 777 778 779 780 781 782 782 782 782 782 782 782 783 783 784 785 786 787 787 787 787 786 785 785 785 785 784 783 783 782 781 780 779 777 776 774 773 771 769 767 766 764 763 761 759 758 755 753 750 748 745 742 740 737 735 732 729 727 724 721 718 715 711 708 704 701 698 694 691 687 684 679 674 669 665 661 657 652 647 643 638
770 772 773 774 775 776 777 778 779 779 779 780 779 779 779 779 780 780 781 782 783 783 783 783 783 783 782 783 783 782 781 780 779 778 778 777 776 775 774 772 771 769 767 766 764 763 761 759 757 755 753 750 748 746 743 740 738 735 733 730 727 725 722 719 715 712 708 705 702 699 695 692 688 685 681 677 672 668 663 659 655 651 646 641 636
769 770 771 772 773 774 775 776 777 777 777 777 777 777 777 777 777 778 779 779 779 779 779 779 779 779 779 780 780 780 779 778 777 776 775 774 773 773 771 770 769 767 765 764 762 761 759 757 755 753 751 748 746 743 741 738 736 733 731 729 726 723 720 717 714 710 707 704 700 697 693 690 686 682 678 674 670 666 662 657 653 649 644 640 635
767 768 769 770 771 772 773 774 774 774 774 774 774 774 774 774 775 776 776 776 776 776 776 775 775 775 776 777 777 778 778 776 774 773 772 771 770 770 769 768 767 765 763 762 760 759 757 755 753 751 748 746 744 741 739 737 734 731 729 727 725 722 719 716 713 709 706 702 699 695 692 688 684 680 676 672 668 664 660 656 651 647 642 638 633
766 766 768 769 770 770 771 771 771 772 772 771 771 772 772 772 773 773 774 774 773 773 772 771 771 772 773 773 774 775 774 773 771 771 770 768 767 766 766 765 764 762 761 760 758 756 755 752 751 748 746 744 742 739 737 735 732 730 728 725 723 721 717 714 711 708 704 701 697 694 690 686 682 678 674 670 666 662 658 654 649 645 640 636 632
764 765 766 767 767 768 768 768 769 769 769 769 769 769 770 770 770 771 771 771 771 770 769 768 768 768 769 770 771 771 770 769 769 768 767 766 765 763 763 762 761 759 759 757 756 754 752 750 748 746 744 742 741 738 736 734 731 729 727 724 722 720 717 713 710 707 703 699 695 692 688 684 680 676 672 668 664 660 656 652 648 644 640 635 631
762 763 764 764 765 766 766 766 766 766 766 766 766 767 767 767 768 768 768 768 767 767 766 765 765 765 766 766 767 767 767 766 766 765 764 763 762 761 760 759 758 757 756 755 754 752 750 748 746 744 742 741 739 737 735 733 730 728 726 723 721 718 716 713 710 706 702 698 694 691 687 683 679 675 671 667 663 659 655 651 647 643 639 635 632
760 761 761 762 763 763 763 763 764 763 763 764 763 764 764 765 765 765 765 765 764 764 763 763 763 763 763 763 764 764 764 763 763 762 761 760 759 759 758 756 755 754 753 752 751 750 748 746 744 742 740 738 737 735 733 731 729 727 724 722 720 717 715 712 709 705 702 698 695 690 686 682 678 674 670 666 663 659 655 651 647 643 640 636 632
758 759 759 760 760 761 761 761 761 761 761 761 761 761 761 762 762 762 762 762 762 761 760 760 760 760 760 760 761 761 761 760 760 759 758 758 757 756 755 754 753 752 750 749 748 747 746 744 742 740 738 736 734 732 730 728 726 724 722 720 718 716 714 711 708 704 701 698 694 690 686 681 678 674 670 667 663 659 655 651 647 644 641 637 634
756 757 757 758 758 758 758 758 758 758 758 758 758 758 758 758 759 759 759 759 758 758 758 757 757 757 757 757 758 757 758 757 757 756 755 755 754 753 752 751 750 749 748 747 746 744 743 741 740 738 736 733 731 729 727 725 723 722 719 717 715 713 711 709 706 702 700 697 694 690 685 681 677 673 670 666 663 659 656 652 649 645 642 639 636
754 755 755 756 756 756 756 756 756 756 755 755 756 756 755 756 756 756 755 755 755 755 755 754 754 754 754 754 754 755 755 754 753 753 752 752 751 751 749 748 747 746 745 744 743 742 740 738 737 735 733 731 729 726 724 722 721 719 717 715 713 711 709 706 703 701 699 696 693 689 685 681 677 674 670 666 663 660 657 653 650 647 644 641 639
753 753 753 753 753 753 753 754 754 753 753 754 753 753 753 753 753 753 753 753 752 752 752 752 751 751 751 751 751 752 751 751 750 750 749 748 748 747 746 745 744 743 741 740 739 738 737 735 733 732 730 728 726 724 722 720 718 716 714 712 710 708 706 704 702 700 698 695 692 688 684 680 677 674 670 667 664 660 657 654 651 648 646 643 640
751 751 751 751 751 751 751 752 751 751 751 751 751 751 751 750 750 750 750 750 749 749 749 749 748 748 749 748 749 749 748 748 747 746 746 745 745 744 743 742 740 739 738 737 735 734 733 732 730 728 727 725 723 721 719 717 715 713 711 709 707 705 703 702 700 698 696 694 690 687 683 680 677 673 670 667 664 661 658 655 652 650 647 644 642
750 750 750 749 749 749 750 750 749 749 749 749 748 748 748 747 747 747 747 747 747 746 746 746 746 746 745 745 746 745 745 744 744 743 742 742 741 740 739 738 737 736 735 733 732 730 729 728 726 725 723 721 720 718 716 714 713 711 709 707 705 703 701 700 698 696 695 692 690 686 683 680 676 673 670 667 664 661 659 656 653 651 648 646 644